Data supplied by UK-AIR on 1/4/2021
All Data GMT hour ending 
Status: R =Ratified P=Provisional,P*=As supplied
,,Cambridge Roadside,,,,,,,,,,,,,,,,,,,,,,,
Date,time,"Nitric oxide",status,unit,"Nitrogen dioxide",status,unit,"Nitrogen oxides as nitrogen dioxide",status,unit
 
01-01-2020,01:00,9.14932,R,ugm-3,23.35230,R,ugm-3,37.38106,R,ugm-3
01-01-2020,02:00,9.78031,R,ugm-3,23.35574,R,ugm-3,38.35200,R,ugm-3
01-01-2020,03:00,10.58031,R,ugm-3,22.26779,R,ugm-3,38.49070,R,ugm-3
01-01-2020,04:00,14.26483,R,ugm-3,23.79627,R,ugm-3,45.66870,R,ugm-3
01-01-2020,05:00,7.36904,R,ugm-3,21.15800,R,ugm-3,32.45703,R,ugm-3
01-01-2020,06:00,5.13804,R,ugm-3,25.98319,R,ugm-3,33.86142,R,ugm-3
01-01-2020,07:00,5.81410,R,ugm-3,34.41322,R,ugm-3,43.32805,R,ugm-3
01-01-2020,08:00,4.05635,R,ugm-3,32.27106,R,ugm-3,38.49070,R,ugm-3
01-01-2020,09:00,3.85353,R,ugm-3,29.82527,R,ugm-3,35.73394,R,ugm-3
01-01-2020,10:00,5.03663,R,ugm-3,25.56653,R,ugm-3,33.28926,R,ugm-3
01-01-2020,11:00,7.67326,R,ugm-3,26.51714,R,ugm-3,38.28264,R,ugm-3
01-01-2020,12:00,14.23102,R,ugm-3,31.33818,R,ugm-3,53.15878,R,ugm-3
01-01-2020,13:00,10.37749,R,ugm-3,31.57727,R,ugm-3,47.48921,R,ugm-3
01-01-2020,14:00,12.03384,R,ugm-3,33.30277,R,ugm-3,51.75439,R,ugm-3
01-01-2020,15:00,11.69581,R,ugm-3,34.65330,R,ugm-3,52.58662,R,ugm-3
01-01-2020,16:00,12.33806,R,ugm-3,35.95716,R,ugm-3,54.87526,R,ugm-3
01-01-2020,17:00,8.07890,R,ugm-3,31.77281,R,ugm-3,44.16028,R,ugm-3
01-01-2020,18:00,7.57185,R,ugm-3,29.06530,R,ugm-3,40.67531,R,ugm-3
01-01-2020,19:00,6.01692,R,ugm-3,28.48467,R,ugm-3,37.71049,R,ugm-3
01-01-2020,20:00,6.92960,R,ugm-3,25.47281,R,ugm-3,36.09804,R,ugm-3
01-01-2020,21:00,5.50987,R,ugm-3,24.99695,R,ugm-3,33.44530,R,ugm-3
01-01-2020,22:00,2.02818,R,ugm-3,20.55676,R,ugm-3,23.66658,R,ugm-3
01-01-2020,23:00,2.97466,R,ugm-3,23.94285,R,ugm-3,28.50393,R,ugm-3
01-01-2020,24:00,3.34649,R,ugm-3,32.94338,R,ugm-3,38.07459,R,ugm-3
02-01-2020,01:00,1.30853,R,ugm-3,31.47053,R,ugm-3,33.47691,R,ugm-3
02-01-2020,02:00,1.17316,R,ugm-3,26.67739,R,ugm-3,28.47621,R,ugm-3
02-01-2020,03:00,1.28596,R,ugm-3,26.26133,R,ugm-3,28.23312,R,ugm-3
02-01-2020,04:00,1.72590,R,ugm-3,23.08642,R,ugm-3,25.73277,R,ugm-3
02-01-2020,05:00,0.81219,R,ugm-3,15.42366,R,ugm-3,16.66900,R,ugm-3
02-01-2020,06:00,3.31643,R,ugm-3,15.33440,R,ugm-3,20.41952,R,ugm-3
02-01-2020,07:00,11.97977,R,ugm-3,21.48060,R,ugm-3,39.84932,R,ugm-3
02-01-2020,08:00,32.72439,R,ugm-3,35.61655,R,ugm-3,85.79325,R,ugm-3
02-01-2020,09:00,18.00349,R,ugm-3,33.02851,R,ugm-3,60.63348,R,ugm-3
02-01-2020,10:00,28.79882,R,ugm-3,35.38480,R,ugm-3,79.54238,R,ugm-3
02-01-2020,11:00,24.73788,R,ugm-3,30.20364,R,ugm-3,68.13453,R,ugm-3
02-01-2020,12:00,20.54158,R,ugm-3,27.46993,R,ugm-3,58.96658,R,ugm-3
02-01-2020,13:00,19.01873,R,ugm-3,26.00233,R,ugm-3,55.16397,R,ugm-3
02-01-2020,14:00,22.97814,R,ugm-3,34.67295,R,ugm-3,69.90561,R,ugm-3
02-01-2020,15:00,24.63636,R,ugm-3,33.06802,R,ugm-3,70.84324,R,ugm-3
02-01-2020,16:00,33.94267,R,ugm-3,33.22764,R,ugm-3,85.27234,R,ugm-3
02-01-2020,17:00,24.53483,R,ugm-3,33.01533,R,ugm-3,70.63488,R,ugm-3
02-01-2020,18:00,26.05769,R,ugm-3,39.53572,R,ugm-3,79.49029,R,ugm-3
02-01-2020,19:00,17.36051,R,ugm-3,29.22207,R,ugm-3,55.84114,R,ugm-3
02-01-2020,20:00,8.49413,R,ugm-3,19.37622,R,ugm-3,32.40036,R,ugm-3
02-01-2020,21:00,4.50087,R,ugm-3,15.75818,R,ugm-3,22.65942,R,ugm-3
02-01-2020,22:00,5.44843,R,ugm-3,17.58699,R,ugm-3,25.94113,R,ugm-3
02-01-2020,23:00,2.94418,R,ugm-3,12.72765,R,ugm-3,17.24200,R,ugm-3
02-01-2020,24:00,1.96279,R,ugm-3,9.12755,R,ugm-3,12.13712,R,ugm-3
03-01-2020,01:00,1.08414,R,ugm-3,7.37992,R,ugm-3,9.04224,R,ugm-3
03-01-2020,02:00,0.85828,R,ugm-3,9.88246,R,ugm-3,11.19847,R,ugm-3
03-01-2020,03:00,0.77923,R,ugm-3,6.99539,R,ugm-3,8.19018,R,ugm-3
03-01-2020,04:00,0.64371,R,ugm-3,6.36851,R,ugm-3,7.35552,R,ugm-3
03-01-2020,05:00,0.74535,R,ugm-3,5.95183,R,ugm-3,7.09468,R,ugm-3
03-01-2020,06:00,3.96389,R,ugm-3,14.68450,R,ugm-3,20.76238,R,ugm-3
03-01-2020,07:00,10.60425,R,ugm-3,22.81329,R,ugm-3,39.07291,R,ugm-3
03-01-2020,08:00,26.83248,R,ugm-3,33.24726,R,ugm-3,74.38982,R,ugm-3
03-01-2020,09:00,23.07187,R,ugm-3,34.78794,R,ugm-3,70.16431,R,ugm-3
03-01-2020,10:00,30.76249,R,ugm-3,36.08968,R,ugm-3,83.25817,R,ugm-3
03-01-2020,11:00,32.08379,R,ugm-3,38.96740,R,ugm-3,88.16185,R,ugm-3
03-01-2020,12:00,33.87939,R,ugm-3,37.51834,R,ugm-3,89.46602,R,ugm-3
03-01-2020,13:00,30.08490,R,ugm-3,41.61498,R,ugm-3,87.74452,R,ugm-3
03-01-2020,14:00,44.38201,R,ugm-3,49.79329,R,ugm-3,117.84474,R,ugm-3
03-01-2020,15:00,49.83659,R,ugm-3,48.52439,R,ugm-3,124.93943,R,ugm-3
03-01-2020,16:00,59.05178,R,ugm-3,50.25332,R,ugm-3,140.79813,R,ugm-3
03-01-2020,17:00,58.91626,R,ugm-3,59.53813,R,ugm-3,149.87515,R,ugm-3
03-01-2020,18:00,60.84739,R,ugm-3,55.37728,R,ugm-3,148.67531,R,ugm-3
03-01-2020,19:00,31.74499,R,ugm-3,48.92906,R,ugm-3,97.60404,R,ugm-3
03-01-2020,20:00,18.36263,R,ugm-3,38.82650,R,ugm-3,66.98214,R,ugm-3
03-01-2020,21:00,18.46427,R,ugm-3,35.27982,R,ugm-3,63.59130,R,ugm-3
03-01-2020,22:00,15.07633,R,ugm-3,32.44090,R,ugm-3,55.55762,R,ugm-3
03-01-2020,23:00,10.19770,R,ugm-3,27.76651,R,ugm-3,43.40276,R,ugm-3
03-01-2020,24:00,11.14632,R,ugm-3,25.42514,R,ugm-3,42.51592,R,ugm-3
04-01-2020,01:00,3.70833,R,ugm-3,18.55470,R,ugm-3,24.24072,R,ugm-3
04-01-2020,02:00,5.69816,R,ugm-3,18.01132,R,ugm-3,26.74838,R,ugm-3
04-01-2020,03:00,4.81630,R,ugm-3,14.87059,R,ugm-3,22.25549,R,ugm-3
04-01-2020,04:00,2.20465,R,ugm-3,11.71780,R,ugm-3,15.09821,R,ugm-3
04-01-2020,05:00,1.01753,R,ugm-3,9.56756,R,ugm-3,11.12774,R,ugm-3
04-01-2020,06:00,3.35785,R,ugm-3,12.77070,R,ugm-3,17.91933,R,ugm-3
04-01-2020,07:00,21.02893,R,ugm-3,31.33573,R,ugm-3,63.57965,R,ugm-3
04-01-2020,08:00,23.36925,R,ugm-3,35.79271,R,ugm-3,71.62506,R,ugm-3
04-01-2020,09:00,14.24541,R,ugm-3,30.76598,R,ugm-3,52.60863,R,ugm-3
04-01-2020,10:00,26.48967,R,ugm-3,32.73214,R,ugm-3,73.34908,R,ugm-3
04-01-2020,11:00,26.65926,R,ugm-3,33.72594,R,ugm-3,74.60291,R,ugm-3
04-01-2020,12:00,15.09335,R,ugm-3,28.47321,R,ugm-3,51.61602,R,ugm-3
04-01-2020,13:00,18.04418,R,ugm-3,34.44949,R,ugm-3,62.11685,R,ugm-3
04-01-2020,14:00,20.14708,R,ugm-3,33.10584,R,ugm-3,63.99759,R,ugm-3
04-01-2020,15:00,35.24042,R,ugm-3,38.06973,R,ugm-3,92.10429,R,ugm-3
04-01-2020,16:00,43.27890,R,ugm-3,50.97757,R,ugm-3,117.33762,R,ugm-3
04-01-2020,17:00,119.45791,R,ugm-3,60.39030,R,ugm-3,243.55654,R,ugm-3
04-01-2020,18:00,88.55895,R,ugm-3,56.83120,R,ugm-3,192.61969,R,ugm-3
04-01-2020,19:00,57.86349,R,ugm-3,48.78062,R,ugm-3,137.50340,R,ugm-3
04-01-2020,20:00,37.10589,R,ugm-3,47.22525,R,ugm-3,104.12016,R,ugm-3
04-01-2020,21:00,29.06741,R,ugm-3,45.39291,R,ugm-3,89.96233,R,ugm-3
04-01-2020,22:00,17.02665,R,ugm-3,34.70360,R,ugm-3,60.81077,R,ugm-3
04-01-2020,23:00,16.28047,R,ugm-3,33.49681,R,ugm-3,58.45984,R,ugm-3
04-01-2020,24:00,15.36469,R,ugm-3,29.41547,R,ugm-3,52.97433,R,ugm-3
05-01-2020,01:00,7.51557,R,ugm-3,22.23954,R,ugm-3,33.76325,R,ugm-3
05-01-2020,02:00,11.40918,R,ugm-3,23.80338,R,ugm-3,41.29720,R,ugm-3
05-01-2020,03:00,5.97624,R,ugm-3,20.60613,R,ugm-3,29.76956,R,ugm-3
05-01-2020,04:00,2.51273,R,ugm-3,14.61583,R,ugm-3,18.46864,R,ugm-3
05-01-2020,05:00,4.65196,R,ugm-3,14.42257,R,ugm-3,21.55546,R,ugm-3
05-01-2020,06:00,2.34296,R,ugm-3,13.67282,R,ugm-3,17.26530,R,ugm-3
05-01-2020,07:00,5.05943,R,ugm-3,20.18072,R,ugm-3,27.93839,R,ugm-3
05-01-2020,08:00,1.56197,R,ugm-3,13.35306,R,ugm-3,15.74805,R,ugm-3
05-01-2020,09:00,1.01868,R,ugm-3,10.05289,R,ugm-3,11.61484,R,ugm-3
05-01-2020,10:00,4.78778,R,ugm-3,14.52822,R,ugm-3,21.86938,R,ugm-3
05-01-2020,11:00,7.77590,R,ugm-3,17.16654,R,ugm-3,29.08941,R,ugm-3
05-01-2020,12:00,12.69950,R,ugm-3,21.85979,R,ugm-3,41.33208,R,ugm-3
05-01-2020,13:00,11.71478,R,ugm-3,24.52069,R,ugm-3,42.48310,R,ugm-3
05-01-2020,14:00,10.11885,R,ugm-3,25.13658,R,ugm-3,40.65193,R,ugm-3
05-01-2020,15:00,13.10697,R,ugm-3,28.55968,R,ugm-3,48.65675,R,ugm-3
05-01-2020,16:00,11.71478,R,ugm-3,26.45650,R,ugm-3,44.41891,R,ugm-3
05-01-2020,17:00,18.03057,R,ugm-3,35.81656,R,ugm-3,63.46305,R,ugm-3
05-01-2020,18:00,18.09848,R,ugm-3,35.71243,R,ugm-3,63.46305,R,ugm-3
05-01-2020,19:00,8.89644,R,ugm-3,27.63874,R,ugm-3,41.27976,R,ugm-3
05-01-2020,20:00,8.38710,R,ugm-3,26.69319,R,ugm-3,39.55323,R,ugm-3
05-01-2020,21:00,7.33447,R,ugm-3,24.12167,R,ugm-3,35.36770,R,ugm-3
05-01-2020,22:00,5.02547,R,ugm-3,19.65727,R,ugm-3,27.36288,R,ugm-3
05-01-2020,23:00,4.99151,R,ugm-3,19.08151,R,ugm-3,26.73505,R,ugm-3
05-01-2020,24:00,4.14262,R,ugm-3,17.24398,R,ugm-3,23.59591,R,ugm-3
06-01-2020,01:00,1.40509,R,ugm-3,11.18888,R,ugm-3,13.34332,R,ugm-3
06-01-2020,02:00,1.99432,R,ugm-3,11.05387,R,ugm-3,14.11179,R,ugm-3
06-01-2020,03:00,0.88385,R,ugm-3,8.54749,R,ugm-3,9.90270,R,ugm-3
06-01-2020,04:00,1.59772,R,ugm-3,9.54870,R,ugm-3,11.99851,R,ugm-3
06-01-2020,05:00,0.40793,R,ugm-3,7.12901,R,ugm-3,7.75450,R,ugm-3
06-01-2020,06:00,1.32577,R,ugm-3,8.39383,R,ugm-3,10.42665,R,ugm-3
06-01-2020,07:00,8.97445,R,ugm-3,23.59718,R,ugm-3,37.35781,R,ugm-3
06-01-2020,08:00,22.19816,R,ugm-3,30.40944,R,ugm-3,64.44615,R,ugm-3
06-01-2020,09:00,26.71938,R,ugm-3,35.37073,R,ugm-3,76.33987,R,ugm-3
06-01-2020,10:00,22.47011,R,ugm-3,29.83527,R,ugm-3,64.28896,R,ugm-3
06-01-2020,11:00,19.30866,R,ugm-3,29.75761,R,ugm-3,59.36381,R,ugm-3
06-01-2020,12:00,20.87239,R,ugm-3,27.30753,R,ugm-3,59.31141,R,ugm-3
06-01-2020,13:00,24.54375,R,ugm-3,36.66322,R,ugm-3,74.29645,R,ugm-3
06-01-2020,14:00,30.79867,R,ugm-3,38.91381,R,ugm-3,86.13778,R,ugm-3
06-01-2020,15:00,24.91769,R,ugm-3,35.35633,R,ugm-3,73.56292,R,ugm-3
06-01-2020,16:00,31.20660,R,ugm-3,39.49341,R,ugm-3,87.34287,R,ugm-3
06-01-2020,17:00,37.93744,R,ugm-3,45.83463,R,ugm-3,104.00456,R,ugm-3
06-01-2020,18:00,24.71373,R,ugm-3,38.86518,R,ugm-3,76.75903,R,ugm-3
06-01-2020,19:00,25.35961,R,ugm-3,33.05447,R,ugm-3,71.93867,R,ugm-3
06-01-2020,20:00,14.68546,R,ugm-3,29.24911,R,ugm-3,51.76650,R,ugm-3
06-01-2020,21:00,13.46167,R,ugm-3,27.51029,R,ugm-3,48.15123,R,ugm-3
06-01-2020,22:00,8.53252,R,ugm-3,25.32269,R,ugm-3,38.40571,R,ugm-3
06-01-2020,23:00,4.79317,R,ugm-3,19.84370,R,ugm-3,27.19313,R,ugm-3
06-01-2020,24:00,5.26909,R,ugm-3,17.85649,R,ugm-3,25.93565,R,ugm-3
07-01-2020,01:00,2.31420,R,ugm-3,14.71166,R,ugm-3,18.26005,R,ugm-3
07-01-2020,02:00,5.89894,R,ugm-3,15.86150,R,ugm-3,24.90642,R,ugm-3
07-01-2020,03:00,2.14404,R,ugm-3,14.34291,R,ugm-3,17.63039,R,ugm-3
07-01-2020,04:00,2.28017,R,ugm-3,13.45205,R,ugm-3,16.94826,R,ugm-3
07-01-2020,05:00,3.33517,R,ugm-3,15.45493,R,ugm-3,20.56879,R,ugm-3
07-01-2020,06:00,9.39293,R,ugm-3,16.45089,R,ugm-3,30.85318,R,ugm-3
07-01-2020,07:00,16.13134,R,ugm-3,28.26174,R,ugm-3,52.99611,R,ugm-3
07-01-2020,08:00,47.71337,R,ugm-3,34.40689,R,ugm-3,107.56637,R,ugm-3
07-01-2020,09:00,32.29671,R,ugm-3,36.95193,R,ugm-3,86.47287,R,ugm-3
07-01-2020,10:00,31.30977,R,ugm-3,40.87890,R,ugm-3,88.88655,R,ugm-3
07-01-2020,11:00,28.82541,R,ugm-3,40.38555,R,ugm-3,84.58390,R,ugm-3
07-01-2020,12:00,21.74668,R,ugm-3,39.01362,R,ugm-3,72.35806,R,ugm-3
07-01-2020,13:00,32.09252,R,ugm-3,41.25285,R,ugm-3,90.46069,R,ugm-3
07-01-2020,14:00,28.41702,R,ugm-3,38.54558,R,ugm-3,82.11774,R,ugm-3
07-01-2020,15:00,24.09491,R,ugm-3,44.75295,R,ugm-3,81.69797,R,ugm-3
07-01-2020,16:00,20.96394,R,ugm-3,38.48225,R,ugm-3,70.62650,R,ugm-3
07-01-2020,17:00,23.82265,R,ugm-3,35.35826,R,ugm-3,71.88582,R,ugm-3
07-01-2020,18:00,28.45106,R,ugm-3,34.71546,R,ugm-3,78.33980,R,ugm-3
07-01-2020,19:00,15.89311,R,ugm-3,24.90154,R,ugm-3,49.27064,R,ugm-3
07-01-2020,20:00,10.48197,R,ugm-3,19.81831,R,ugm-3,35.89044,R,ugm-3
07-01-2020,21:00,4.39017,R,ugm-3,15.30648,R,ugm-3,22.03799,R,ugm-3
07-01-2020,22:00,3.19904,R,ugm-3,11.83325,R,ugm-3,16.73838,R,ugm-3
07-01-2020,23:00,6.63631,R,ugm-3,14.17120,R,ugm-3,24.34673,R,ugm-3
07-01-2020,24:00,1.83775,R,ugm-3,7.83385,R,ugm-3,10.65169,R,ugm-3
08-01-2020,01:00,1.72624,R,ugm-3,6.46137,R,ugm-3,9.10824,R,ugm-3
08-01-2020,02:00,0.72684,R,ugm-3,5.05111,R,ugm-3,6.16558,R,ugm-3
08-01-2020,03:00,0.68141,R,ugm-3,4.63032,R,ugm-3,5.67514,R,ugm-3
08-01-2020,04:00,0.37478,R,ugm-3,4.31227,R,ugm-3,4.88692,R,ugm-3
08-01-2020,05:00,0.51106,R,ugm-3,5.62719,R,ugm-3,6.41080,R,ugm-3
08-01-2020,06:00,1.29468,R,ugm-3,9.73295,R,ugm-3,11.71811,R,ugm-3
08-01-2020,07:00,9.53977,R,ugm-3,26.56984,R,ugm-3,41.19728,R,ugm-3
08-01-2020,08:00,28.92594,R,ugm-3,43.19173,R,ugm-3,87.54423,R,ugm-3
08-01-2020,09:00,51.92360,R,ugm-3,53.06750,R,ugm-3,132.68258,R,ugm-3
08-01-2020,10:00,40.95287,R,ugm-3,48.87003,R,ugm-3,111.66355,R,ugm-3
08-01-2020,11:00,,,,,,,,,
08-01-2020,12:00,37.71616,R,ugm-3,41.95717,R,ugm-3,99.78781,R,ugm-3
08-01-2020,13:00,36.72811,R,ugm-3,43.57725,R,ugm-3,99.89290,R,ugm-3
08-01-2020,14:00,43.23560,R,ugm-3,48.62785,R,ugm-3,114.92150,R,ugm-3
08-01-2020,15:00,47.59663,R,ugm-3,46.61775,R,ugm-3,119.59823,R,ugm-3
08-01-2020,16:00,48.75504,R,ugm-3,51.77783,R,ugm-3,126.53451,R,ugm-3
08-01-2020,17:00,102.51845,R,ugm-3,55.20445,R,ugm-3,212.39721,R,ugm-3
08-01-2020,18:00,148.78633,R,ugm-3,63.87090,R,ugm-3,292.00676,R,ugm-3
08-01-2020,19:00,113.96617,R,ugm-3,63.76766,R,ugm-3,238.51335,R,ugm-3
08-01-2020,20:00,92.43355,R,ugm-3,59.79041,R,ugm-3,201.51987,R,ugm-3
08-01-2020,21:00,45.07541,R,ugm-3,54.37209,R,ugm-3,123.48675,R,ugm-3
08-01-2020,22:00,21.80519,R,ugm-3,40.18497,R,ugm-3,73.61912,R,ugm-3
08-01-2020,23:00,20.51050,R,ugm-3,30.03164,R,ugm-3,61.48064,R,ugm-3
08-01-2020,24:00,9.30128,R,ugm-3,26.72534,R,ugm-3,40.98709,R,ugm-3
09-01-2020,01:00,8.27443,R,ugm-3,23.10114,R,ugm-3,35.78841,R,ugm-3
09-01-2020,02:00,1.90948,R,ugm-3,9.70337,R,ugm-3,12.63120,R,ugm-3
09-01-2020,03:00,3.47799,R,ugm-3,9.92987,R,ugm-3,15.26270,R,ugm-3
09-01-2020,04:00,0.98884,R,ugm-3,5.27307,R,ugm-3,6.78927,R,ugm-3
09-01-2020,05:00,0.40918,R,ugm-3,4.42509,R,ugm-3,5.05248,R,ugm-3
09-01-2020,06:00,2.59144,R,ugm-3,7.07882,R,ugm-3,11.05230,R,ugm-3
09-01-2020,07:00,4.60322,R,ugm-3,11.20445,R,ugm-3,18.26262,R,ugm-3
09-01-2020,08:00,10.19527,R,ugm-3,16.68229,R,ugm-3,32.31483,R,ugm-3
09-01-2020,09:00,17.86730,R,ugm-3,32.39155,R,ugm-3,59.78770,R,ugm-3
09-01-2020,10:00,13.29818,R,ugm-3,30.18718,R,ugm-3,50.57745,R,ugm-3
09-01-2020,11:00,21.00431,R,ugm-3,30.10778,R,ugm-3,62.31394,R,ugm-3
09-01-2020,12:00,11.96837,R,ugm-3,22.54228,R,ugm-3,40.89352,R,ugm-3
09-01-2020,13:00,17.25354,R,ugm-3,30.33273,R,ugm-3,56.78779,R,ugm-3
09-01-2020,14:00,18.00370,R,ugm-3,30.39300,R,ugm-3,57.99828,R,ugm-3
09-01-2020,15:00,51.99931,R,ugm-3,51.00180,R,ugm-3,130.73296,R,ugm-3
09-01-2020,16:00,74.02656,R,ugm-3,60.85744,R,ugm-3,174.36324,R,ugm-3
09-01-2020,17:00,40.23553,R,ugm-3,52.46088,R,ugm-3,114.15451,R,ugm-3
09-01-2020,18:00,22.09544,R,ugm-3,39.75018,R,ugm-3,73.62939,R,ugm-3
09-01-2020,19:00,20.52694,R,ugm-3,30.26081,R,ugm-3,61.73501,R,ugm-3
09-01-2020,20:00,22.81150,R,ugm-3,32.49453,R,ugm-3,67.47168,R,ugm-3
09-01-2020,21:00,9.75200,R,ugm-3,21.25659,R,ugm-3,36.20945,R,ugm-3
09-01-2020,22:00,9.75200,R,ugm-3,17.36197,R,ugm-3,32.31483,R,ugm-3
09-01-2020,23:00,7.74023,R,ugm-3,16.23625,R,ugm-3,28.10443,R,ugm-3
09-01-2020,24:00,17.21944,R,ugm-3,19.06956,R,ugm-3,45.47233,R,ugm-3
10-01-2020,01:00,14.01409,R,ugm-3,22.15797,R,ugm-3,43.64593,R,ugm-3
10-01-2020,02:00,3.82202,R,ugm-3,12.97557,R,ugm-3,18.83593,R,ugm-3
10-01-2020,03:00,1.39913,R,ugm-3,9.55686,R,ugm-3,11.70217,R,ugm-3
10-01-2020,04:00,1.87689,R,ugm-3,10.24755,R,ugm-3,13.12541,R,ugm-3
10-01-2020,05:00,1.74039,R,ugm-3,10.77313,R,ugm-3,13.44168,R,ugm-3
10-01-2020,06:00,3.89027,R,ugm-3,15.43626,R,ugm-3,21.40127,R,ugm-3
10-01-2020,07:00,24.84315,R,ugm-3,37.23383,R,ugm-3,75.32613,R,ugm-3
10-01-2020,08:00,59.61675,R,ugm-3,53.60096,R,ugm-3,145.01203,R,ugm-3
10-01-2020,09:00,57.26211,R,ugm-3,57.15864,R,ugm-3,144.95932,R,ugm-3
10-01-2020,10:00,46.30791,R,ugm-3,49.28540,R,ugm-3,120.28987,R,ugm-3
10-01-2020,11:00,49.00381,R,ugm-3,50.73928,R,ugm-3,125.87740,R,ugm-3
10-01-2020,12:00,46.27379,R,ugm-3,51.92063,R,ugm-3,122.87279,R,ugm-3
10-01-2020,13:00,51.87032,R,ugm-3,50.50830,R,ugm-3,130.04168,R,ugm-3
10-01-2020,14:00,44.87465,R,ugm-3,46.10636,R,ugm-3,114.91320,R,ugm-3
10-01-2020,15:00,53.61071,R,ugm-3,47.20719,R,ugm-3,129.40913,R,ugm-3
10-01-2020,16:00,115.92335,R,ugm-3,61.62071,R,ugm-3,239.36736,R,ugm-3
10-01-2020,17:00,112.51082,R,ugm-3,69.75236,R,ugm-3,242.26655,R,ugm-3
10-01-2020,18:00,98.14411,R,ugm-3,65.63562,R,ugm-3,216.12116,R,ugm-3
10-01-2020,19:00,85.65428,R,ugm-3,58.90460,R,ugm-3,190.23933,R,ugm-3
10-01-2020,20:00,47.43404,R,ugm-3,54.35860,R,ugm-3,127.08979,R,ugm-3
10-01-2020,21:00,28.39218,R,ugm-3,51.98095,R,ugm-3,95.51501,R,ugm-3
10-01-2020,22:00,27.36842,R,ugm-3,42.32293,R,ugm-3,84.28725,R,ugm-3
10-01-2020,23:00,16.10710,R,ugm-3,42.30035,R,ugm-3,66.99756,R,ugm-3
10-01-2020,24:00,12.69458,R,ugm-3,37.25388,R,ugm-3,56.71863,R,ugm-3
11-01-2020,01:00,7.28587,R,ugm-3,29.44540,R,ugm-3,40.61691,R,ugm-3
11-01-2020,02:00,4.09830,R,ugm-3,20.11350,R,ugm-3,26.39747,R,ugm-3
11-01-2020,03:00,3.38110,R,ugm-3,14.45544,R,ugm-3,19.63972,R,ugm-3
11-01-2020,04:00,3.96169,R,ugm-3,12.03416,R,ugm-3,18.10867,R,ugm-3
11-01-2020,05:00,1.16119,R,ugm-3,8.93691,R,ugm-3,10.71737,R,ugm-3
11-01-2020,06:00,0.64890,R,ugm-3,7.92738,R,ugm-3,8.92234,R,ugm-3
11-01-2020,07:00,6.65974,R,ugm-3,18.19222,R,ugm-3,28.40368,R,ugm-3
11-01-2020,08:00,7.51355,R,ugm-3,18.36131,R,ugm-3,29.88194,R,ugm-3
11-01-2020,09:00,11.64601,R,ugm-3,27.38830,R,ugm-3,45.24526,R,ugm-3
11-01-2020,10:00,22.95049,R,ugm-3,27.05497,R,ugm-3,62.24523,R,ugm-3
11-01-2020,11:00,13.01211,R,ugm-3,21.86197,R,ugm-3,41.81359,R,ugm-3
11-01-2020,12:00,19.84261,R,ugm-3,30.97560,R,ugm-3,61.40051,R,ugm-3
11-01-2020,13:00,19.05710,R,ugm-3,30.01544,R,ugm-3,59.23592,R,ugm-3
11-01-2020,14:00,19.22787,R,ugm-3,27.53622,R,ugm-3,57.01854,R,ugm-3
11-01-2020,15:00,31.07879,R,ugm-3,38.03271,R,ugm-3,85.68619,R,ugm-3
11-01-2020,16:00,27.04879,R,ugm-3,39.72438,R,ugm-3,81.19862,R,ugm-3
11-01-2020,17:00,34.76726,R,ugm-3,46.47338,R,ugm-3,99.78244,R,ugm-3
11-01-2020,18:00,25.51193,R,ugm-3,31.04673,R,ugm-3,70.16448,R,ugm-3
11-01-2020,19:00,35.62107,R,ugm-3,37.66734,R,ugm-3,92.28556,R,ugm-3
11-01-2020,20:00,22.67727,R,ugm-3,28.63539,R,ugm-3,63.40672,R,ugm-3
11-01-2020,21:00,7.37694,R,ugm-3,22.37202,R,ugm-3,33.68317,R,ugm-3
11-01-2020,22:00,5.08873,R,ugm-3,12.84022,R,ugm-3,20.64282,R,ugm-3
11-01-2020,23:00,6.31822,R,ugm-3,13.54198,R,ugm-3,23.22977,R,ugm-3
11-01-2020,24:00,5.70347,R,ugm-3,13.48147,R,ugm-3,22.22667,R,ugm-3
12-01-2020,01:00,3.23569,R,ugm-3,8.01127,R,ugm-3,12.97259,R,ugm-3
12-01-2020,02:00,4.14715,R,ugm-3,9.57485,R,ugm-3,15.93372,R,ugm-3
12-01-2020,03:00,2.63185,R,ugm-3,8.23212,R,ugm-3,12.26756,R,ugm-3
12-01-2020,04:00,2.32423,R,ugm-3,7.27610,R,ugm-3,10.83987,R,ugm-3
12-01-2020,05:00,1.19629,R,ugm-3,5.30416,R,ugm-3,7.13845,R,ugm-3
12-01-2020,06:00,0.44434,R,ugm-3,4.60643,R,ugm-3,5.28774,R,ugm-3
12-01-2020,07:00,2.32423,R,ugm-3,8.33365,R,ugm-3,11.89742,R,ugm-3
12-01-2020,08:00,2.49513,R,ugm-3,7.75434,R,ugm-3,11.58015,R,ugm-3
12-01-2020,09:00,1.57227,R,ugm-3,7.79456,R,ugm-3,10.20534,R,ugm-3
12-01-2020,10:00,1.91407,R,ugm-3,8.48665,R,ugm-3,11.42152,R,ugm-3
12-01-2020,11:00,2.90529,R,ugm-3,10.35096,R,ugm-3,14.80567,R,ugm-3
12-01-2020,12:00,4.44338,R,ugm-3,11.74689,R,ugm-3,18.55997,R,ugm-3
12-01-2020,13:00,8.47660,R,ugm-3,18.04177,R,ugm-3,31.03904,R,ugm-3
12-01-2020,14:00,8.03226,R,ugm-3,18.72308,R,ugm-3,31.03904,R,ugm-3
12-01-2020,15:00,10.66410,R,ugm-3,22.24911,R,ugm-3,38.60050,R,ugm-3
12-01-2020,16:00,13.15923,R,ugm-3,28.99878,R,ugm-3,49.17598,R,ugm-3
12-01-2020,17:00,37.66616,R,ugm-3,55.35079,R,ugm-3,113.10476,R,ugm-3
12-01-2020,18:00,79.70734,R,ugm-3,66.02733,R,ugm-3,188.24355,R,ugm-3
12-01-2020,19:00,17.50007,R,ugm-3,36.83133,R,ugm-3,63.66439,R,ugm-3
12-01-2020,20:00,9.46781,R,ugm-3,26.25137,R,ugm-3,40.76848,R,ugm-3
12-01-2020,21:00,12.74907,R,ugm-3,33.11759,R,ugm-3,52.66589,R,ugm-3
12-01-2020,22:00,10.76664,R,ugm-3,28.91306,R,ugm-3,45.42169,R,ugm-3
12-01-2020,23:00,5.12697,R,ugm-3,21.11557,R,ugm-3,28.97682,R,ugm-3
12-01-2020,24:00,7.38284,R,ugm-3,18.81992,R,ugm-3,30.14012,R,ugm-3
13-01-2020,01:00,2.28048,R,ugm-3,12.25005,R,ugm-3,15.74673,R,ugm-3
13-01-2020,02:00,1.27707,R,ugm-3,12.65878,R,ugm-3,14.61692,R,ugm-3
13-01-2020,03:00,1.23146,R,ugm-3,13.36423,R,ugm-3,15.25244,R,ugm-3
13-01-2020,04:00,3.04443,R,ugm-3,13.28533,R,ugm-3,17.95339,R,ugm-3
13-01-2020,05:00,0.75256,R,ugm-3,11.07982,R,ugm-3,12.23373,R,ugm-3
13-01-2020,06:00,4.13906,R,ugm-3,15.73779,R,ugm-3,22.08426,R,ugm-3
13-01-2020,07:00,22.91877,R,ugm-3,30.47564,R,ugm-3,65.61727,R,ugm-3
13-01-2020,08:00,29.58916,R,ugm-3,38.14829,R,ugm-3,83.51771,R,ugm-3
13-01-2020,09:00,40.50124,R,ugm-3,46.04301,R,ugm-3,108.14404,R,ugm-3
13-01-2020,10:00,32.12049,R,ugm-3,43.95863,R,ugm-3,93.20936,R,ugm-3
13-01-2020,11:00,44.67450,R,ugm-3,47.11143,R,ugm-3,115.61138,R,ugm-3
13-01-2020,12:00,30.78641,R,ugm-3,30.11623,R,ugm-3,77.32140,R,ugm-3
13-01-2020,13:00,28.42612,R,ugm-3,37.97208,R,ugm-3,81.55819,R,ugm-3
13-01-2020,14:00,25.14224,R,ugm-3,35.80476,R,ugm-3,74.35565,R,ugm-3
13-01-2020,15:00,27.63936,R,ugm-3,36.10676,R,ugm-3,78.48652,R,ugm-3
13-01-2020,16:00,25.58693,R,ugm-3,37.71794,R,ugm-3,76.95068,R,ugm-3
13-01-2020,17:00,24.04761,R,ugm-3,36.63580,R,ugm-3,73.50829,R,ugm-3
13-01-2020,18:00,19.15599,R,ugm-3,27.71862,R,ugm-3,57.09073,R,ugm-3
13-01-2020,19:00,13.16974,R,ugm-3,25.19328,R,ugm-3,45.38660,R,ugm-3
13-01-2020,20:00,6.67039,R,ugm-3,12.01536,R,ugm-3,22.24314,R,ugm-3
13-01-2020,21:00,4.07065,R,ugm-3,12.18846,R,ugm-3,18.43003,R,ugm-3
13-01-2020,22:00,4.58376,R,ugm-3,11.71947,R,ugm-3,18.74779,R,ugm-3
13-01-2020,23:00,3.18126,R,ugm-3,10.16273,R,ugm-3,15.04060,R,ugm-3
13-01-2020,24:00,2.73657,R,ugm-3,11.26826,R,ugm-3,15.46428,R,ugm-3
14-01-2020,01:00,1.68890,R,ugm-3,9.99910,R,ugm-3,12.58871,R,ugm-3
14-01-2020,02:00,0.45646,R,ugm-3,5.59446,R,ugm-3,6.29436,R,ugm-3
14-01-2020,03:00,2.05407,R,ugm-3,7.24677,R,ugm-3,10.39630,R,ugm-3
14-01-2020,04:00,0.65045,R,ugm-3,6.42858,R,ugm-3,7.42593,R,ugm-3
14-01-2020,05:00,0.41081,R,ugm-3,6.31864,R,ugm-3,6.94855,R,ugm-3
14-01-2020,06:00,2.22524,R,ugm-3,11.17466,R,ugm-3,14.58664,R,ugm-3
14-01-2020,07:00,11.22889,R,ugm-3,21.13221,R,ugm-3,38.34960,R,ugm-3
14-01-2020,08:00,29.13350,R,ugm-3,41.73521,R,ugm-3,86.40595,R,ugm-3
14-01-2020,09:00,30.36594,R,ugm-3,41.22459,R,ugm-3,87.78505,R,ugm-3
14-01-2020,10:00,42.51916,R,ugm-3,44.86769,R,ugm-3,110.06282,R,ugm-3
14-01-2020,11:00,36.97318,R,ugm-3,44.51333,R,ugm-3,101.20476,R,ugm-3
14-01-2020,12:00,24.03257,R,ugm-3,41.60017,R,ugm-3,78.44960,R,ugm-3
14-01-2020,13:00,22.42355,R,ugm-3,34.83794,R,ugm-3,69.22023,R,ugm-3
14-01-2020,14:00,17.11721,R,ugm-3,23.40159,R,ugm-3,49.64762,R,ugm-3
14-01-2020,15:00,13.65954,R,ugm-3,22.01995,R,ugm-3,42.96428,R,ugm-3
14-01-2020,16:00,10.61267,R,ugm-3,19.00061,R,ugm-3,35.27315,R,ugm-3
14-01-2020,17:00,18.86317,R,ugm-3,20.14103,R,ugm-3,49.06415,R,ugm-3
14-01-2020,18:00,8.72978,R,ugm-3,15.89389,R,ugm-3,29.27936,R,ugm-3
14-01-2020,19:00,8.28473,R,ugm-3,17.21279,R,ugm-3,29.91587,R,ugm-3
14-01-2020,20:00,7.25770,R,ugm-3,12.84682,R,ugm-3,23.97513,R,ugm-3
14-01-2020,21:00,4.45048,R,ugm-3,13.91558,R,ugm-3,20.73955,R,ugm-3
14-01-2020,22:00,1.84866,R,ugm-3,7.66781,R,ugm-3,10.50238,R,ugm-3
14-01-2020,23:00,3.73155,R,ugm-3,8.65284,R,ugm-3,14.37447,R,ugm-3
14-01-2020,24:00,2.15677,R,ugm-3,6.39975,R,ugm-3,9.70675,R,ugm-3
15-01-2020,01:00,1.46183,R,ugm-3,5.62102,R,ugm-3,7.86247,R,ugm-3
15-01-2020,02:00,0.63955,R,ugm-3,3.26935,R,ugm-3,4.24998,R,ugm-3
15-01-2020,03:00,0.89081,R,ugm-3,4.95597,R,ugm-3,6.32185,R,ugm-3
15-01-2020,04:00,0.95933,R,ugm-3,6.33839,R,ugm-3,7.80934,R,ugm-3
15-01-2020,05:00,0.75376,R,ugm-3,6.65360,R,ugm-3,7.80934,R,ugm-3
15-01-2020,06:00,8.94231,R,ugm-3,14.97603,R,ugm-3,28.68739,R,ugm-3
15-01-2020,07:00,28.06036,R,ugm-3,27.79006,R,ugm-3,70.81534,R,ugm-3
15-01-2020,08:00,44.09485,R,ugm-3,45.11964,R,ugm-3,112.73080,R,ugm-3
15-01-2020,09:00,38.33888,R,ugm-3,46.87974,R,ugm-3,105.66520,R,ugm-3
15-01-2020,10:00,53.85944,R,ugm-3,48.63489,R,ugm-3,131.21822,R,ugm-3
15-01-2020,11:00,67.08447,R,ugm-3,47.16298,R,ugm-3,150.02440,R,ugm-3
15-01-2020,12:00,28.95116,R,ugm-3,41.35224,R,ugm-3,85.74341,R,ugm-3
15-01-2020,13:00,30.56147,R,ugm-3,39.94564,R,ugm-3,86.80590,R,ugm-3
15-01-2020,14:00,35.15254,R,ugm-3,48.31228,R,ugm-3,102.21209,R,ugm-3
15-01-2020,15:00,41.42243,R,ugm-3,46.02980,R,ugm-3,109.54331,R,ugm-3
15-01-2020,16:00,26.92972,R,ugm-3,37.06740,R,ugm-3,78.35906,R,ugm-3